User: anonymous   Login
Location: NJAA Observatory
(40.6819°N, 74.8979°W)
Time: 13:48:19
(UTC-04:00)
Language:

Cosmos 1328 Rocket - Orbit

View from above orbital plane
View from above orbital plane
View from above satellite
View from above satellite

Ground track
Ground track

The orbit data is extracted from the following two-line orbital elements,

1 12988U 81117B   15146.30311054  .00000196  00000-0  20363-4 0  9994
2 12988 082.5266 059.4359 0018386 169.8054 311.2279 14.84420992808119
Epoch (UTC): 26 May 2015 07:16:28
Eccentricity: 0.0018386
inclination: 82.5266°
perigee height: 602 km
apogee height: 628 km
right ascension of ascending node: 59.4359°
argument of perigee: 169.8054°
revolutions per day: 14.84420992
mean anomaly at epoch: 311.2279°
orbit number at epoch: 80811

The dashed part of the orbit path shows where the satellite is in the earth's shadow,  

DLR